Weather in Kemi

Finland     65°44′53″N   24°34′39″E
temp.,
°C
wind,
m/s
gust,
m/s
humid.,
%
clouds,
%
prec.,
mm/h
press.,
hPa
HPBL,
m
17 june, thu
thu1700:00+10wsw712745 0.0 1014239
03:00+9wsw51078100 0.0 1015188
06:00+10wsw477799 0.0 1016174
09:00+11ssw697498 0.0 1017398
12:00+11ssw6107695 0.0 1017479
15:00+11ssw4870100 0.0 1016335
18:00+12s3570100 0.0 1015189
21:00+11sse4680100 0.0 1013150
18 june, fri
fri1800:00+10s3589100 0.0 101393
03:00+10s4790100 0.0 1012178
06:00+10ssw4886100 0.0 1012265
09:00+10ssw4689100 0.0 1011248
12:00+10s589896 0.4 1011241
15:00+11ssw4694100 0.4 1010263
18:00+11ssw3497100 0.7 1008155
21:00+11sw3597100 1.1 1008157
19 june, sat
sat1900:00+11wsw3599100 0.0 100999
03:00+12nw47846 0.1 1012182
06:00+11wnw35865 0.0 1014124
09:00+13wsw126985 0.0 1016408
12:00+12sw54735 0.0 1017434
15:00+12sw4466100 0.0 1017354
18:00+12s3466100 0.0 1017264
21:00+12s2368100 0.0 1017103
20 june, sun
sun2000:00+10sse2281100 0.3 101538
03:00+9ese3493100 2.0 1015160
06:00+9ene3693100 0.3 1012195
09:00+10ne3498100 9.9 1011129
12:00+12ne2295100 1.1 1011192
15:00+13n1298100 2.3 100989
18:00+13nnw3598100 0.4 1009130
21:00+12nw469677 0.6 1011176
21 june, mon
mon2100:00+10nw359665 0.0 101398
03:00+10nw2294100 0.0 101438
06:00+10w119295 0.0 101453
09:00+12wsw238476 0.0 1015243
12:00+12ssw437895 0.0 1016372
15:00+13ssw337759 0.0 1016305
18:00+14se237212 0.0 1014275
21:00+17e47721 0.0 1012143